User: anonymous   Login
Location: Caltech
(34.1382°N, 118.1253°W)
Time: 17:03:59
(UTC-07:00)
Language:

NOSS 3-1 (C) - Orbit

View from above orbital plane
View from above orbital plane
View from above satellite
View from above satellite

Ground track
Ground track

The orbit data is extracted from the following two-line orbital elements,

1 26907U 01040C   17059.87649130 0.00000030  00000-0  36584-4 0    05
2 26907  63.4178 305.5541 0363000 358.6463   1.3537 13.41265668    06
Epoch (UTC): 28 February 2017 21:02:08
Eccentricity: 0.0363000
inclination: 63.4178°
perigee height: 833 km
apogee height: 1376 km
right ascension of ascending node: 305.5541°
argument of perigee: 358.6463°
revolutions per day: 13.41265668
mean anomaly at epoch: 1.3537°
orbit number at epoch: 0

The dashed part of the orbit path shows where the satellite is in the earth's shadow,  

DLR